Location: Bannatyne
(13.0833°N, 59.5333°W)
Time: 01:58:08
(UTC+00:00)

Explorer 7 - Pass Details

Date: 28 January 2020
Orbit: 485 x 679 km, 50.3° (Epoch: 21 February)

Event Time Altitude Azimuth Distance (km) Brightness Sun altitude
Rises 22:32:09 0° 209° (SSW) 2,790 11.2 -8.9°
Reaches altitude 10° 22:34:31 10° 204° (SSW) 1,856 10.1 -9.5°
Maximum altitude 22:38:37 52° 128° (SE) 673 7.0 -10.5°
Enters shadow 22:41:49 15° 53° (NE) 1,491 8.4 -11.2°
Drops below altitude 10° 22:42:29 10° 51° (NE) 1,747 - -11.4°
Sets 22:44:40 0° 46° (NE) 2,607 - -11.9°
